#timestamp,LO_Frequency,Hit 
1498842015.8,286047487.3,N
1498842035.6,286047487.4,N
1498842055.4,286047486.9,N
1498842075.3,286047487.6,N
1498842095.1,286047486.7,N
1498842115.8,286047486.5,N
1498842135.7,286047486.2,N
1498842155.5,286047486.4,N
1498842175.3,286047487.0,N
1498842195.2,286047486.4,N
1498842215.0,286047486.1,N
1498842215.9,286047486.1,N
1498842235.7,286047486.4,N
1498842255.6,286047488.5,N
1498842275.4,286047488.5,N
1498842295.2,286047487.9,N
1498842315.1,286047490.5,N
1498842316.0,286047490.5,N
1498842335.8,286047490.7,N
1498842355.6,286047490.8,N
1498842375.5,286047490.5,N
1498842395.3,286047488.2,N
1498842415.1,286047490.7,N
1498842435.9,286047488.1,N
1498842455.7,286047489.0,N
1498842475.5,286047488.9,N
1498842495.4,286047488.9,N
1498842515.2,286047488.9,N
1498842535.0,286047488.1,N
1498842535.9,286047488.1,N
1498842555.8,286047490.3,N
1498842575.6,286047488.5,N
1498842595.4,286047488.4,N
1498842615.3,286047488.3,N
1498842635.1,286047488.8,N
1498842655.8,286047488.6,N
1498842675.7,286047486.1,N
1498842695.5,286047486.2,N
1498842715.3,286047489.2,N
1498842735.2,286047490.5,N
1498842755.0,286047490.7,N
1498842755.9,286047490.7,N
1498842775.7,286047488.7,N
1498842795.6,286047488.2,N
1498842815.4,286047488.0,N
1498842835.2,286047487.8,N
1498842855.1,286047488.2,N
1498842856.0,286047488.2,N
1498842875.8,286047490.8,N
1498842895.6,286047490.8,N
1498842915.5,286047487.9,N
1498842935.3,286047490.5,N
1498842955.1,286047490.8,N
1498842975.9,286047489.7,N
1498842995.7,286047489.3,N
1498843015.5,286047492.3,N
1498843035.4,286047492.3,N
1498843055.2,286047491.1,N
1498843075.0,286047491.6,N
1498843076.0,286047491.6,N
1498843095.8,286047492.1,N
1498843115.6,286047489.3,N
1498843135.5,286047491.6,N
1498843155.3,286047489.4,N
1498843175.1,286047490.1,N
1498843195.9,286047490.4,N
1498843215.7,286047490.3,N
1498843235.5,286047490.1,N
1498843255.4,286047489.7,N
1498843275.2,286047490.2,N
1498843295.0,286047490.1,N
1498843295.9,286047490.1,N
1498843315.8,286047489.3,N
1498843335.6,286047492.3,N
1498843355.4,286047489.5,N
1498843375.3,286047490.1,N
1498843395.1,286047490.0,N
1498843396.0,286047490.0,N
1498843415.8,286047489.8,N
1498843435.7,286047489.3,N
1498843455.5,286047492.1,N
1498843475.3,286047492.3,N
1498843495.2,286047489.9,N
1498843515.9,286047490.1,N
1498843535.7,286047490.5,N
1498843555.6,286047489.5,N
1498843575.4,286047489.5,N
1498843595.2,286047490.0,N
1498843615.0,286047489.8,N
1498843616.0,286047489.8,N
1498843635.8,286047492.4,N
1498843655.6,286047490.2,N
1498843675.5,286047487.8,N
1498843695.3,286047487.8,N
1498843715.1,286047490.4,N
1498843735.9,286047490.0,N
1498843755.7,286047490.3,N
1498843775.5,286047489.7,N
1498843795.3,286047492.1,N
1498843815.2,286047491.5,N
1498843835.0,286047491.5,N
1498843835.9,286047491.5,N
1498843855.8,286047491.5,N
1498843875.6,286047491.6,N
1498843895.4,286047491.4,N
1498843915.2,286047491.3,N
1498843935.1,286047492.3,N
1498843936.0,286047492.3,N
1498843955.8,286047491.5,N
1498843975.7,286047492.2,N
1498843995.5,286047489.8,N
1498844015.3,286047492.0,N
1498844035.1,286047491.8,N
1498844055.9,286047493.6,N
1498844075.7,286047493.5,N
1498844095.5,286047491.4,N
1498844115.4,286047491.0,N
1498844135.2,286047491.5,N
1498844155.0,286047491.0,N
1498844156.0,286047491.0,N
1498844175.8,286047491.6,N
1498844195.6,286047491.6,N
1498844215.4,286047492.0,N
1498844235.3,286047491.2,N
1498844255.1,286047490.9,N
1498844275.8,286047491.9,N
1498844295.7,286047492.0,N
1498844315.5,286047491.2,N
1498844335.3,286047492.1,N
1498844355.2,286047491.9,N
1498844375.0,286047491.5,N
1498844375.9,286047491.5,N
1498844395.7,286047492.3,N
1498844415.6,286047492.4,N
1498844435.4,286047489.9,N
1498844455.2,286047490.1,N
1498844475.1,286047489.3,N
1498844476.0,286047489.3,N
1498844495.8,286047491.8,N
1498844515.6,286047491.6,N
1498844535.5,286047493.3,N
1498844555.3,286047493.3,N
1498844575.1,286047493.5,N
1498844595.9,286047491.0,N
1498844615.7,286047491.3,N
1498844635.5,286047493.9,N
1498844655.4,286047493.6,N
1498844675.2,286047493.3,N
1498844695.0,286047493.3,N
1498844695.9,286047493.3,N
1498844715.8,286047493.1,N
1498844735.6,286047493.2,N
1498844755.4,286047493.7,N
1498844775.3,286047493.9,N
1498844795.1,286047493.5,N
1498844815.8,286047493.6,N
1498844835.7,286047493.8,N
1498844855.5,286047492.9,N
1498844875.3,286047492.5,N
1498844895.2,286047493.1,N
1498844915.0,286047492.8,N
1498844915.9,286047492.8,N
1498844935.7,286047493.3,N
1498844955.6,286047493.7,N
1498844975.4,286047492.7,N
1498844995.2,286047492.7,N
1498845015.1,286047491.3,N
1498845016.0,286047491.3,N
1498845035.8,286047493.8,N
1498845055.6,286047493.0,N
1498845075.5,286047493.1,N
1498845095.3,286047492.7,N
1498845115.1,286047493.0,N
1498845135.9,286047492.6,N
1498845155.7,286047492.6,N
1498845175.6,286047493.0,N
1498845195.4,286047493.3,N
1498845215.2,286047492.9,N
1498845235.0,286047492.9,N
1498845236.0,286047492.9,N
1498845255.8,286047492.5,N
1498845275.6,286047494.0,N
1498845295.5,286047493.2,N
1498845315.3,286047493.3,N
1498845335.1,286047492.5,N
1498845355.9,286047493.0,N
1498845375.7,286047495.5,N
1498845395.5,286047494.3,N
1498845415.4,286047495.2,N
1498845435.2,286047494.7,N
1498845455.0,286047495.2,N
1498845455.9,286047495.2,N
1498845475.8,286047495.5,N
1498845495.6,286047492.6,N
1498845515.4,286047495.3,N
1498845535.3,286047498.3,N
1498845555.1,286047494.7,N
1498845556.0,286047494.7,N
1498845575.8,286047492.9,N
1498845595.7,286047492.8,N
